EZY298K EGKK-EGAC

Flight info

Callsign EZY298K
Flight time 0h 54m
Altitude 34000
Route LAM L10 BPK UN601 LESTA UP6 RODOL UM65 TENSO L603 BELOX DCT REMSI DCT NINEB M148 MAGEE
Aircraft A320/M-SDE3FGHIRWY/LB1

Departure

Time 2026-05-07 11:52
Airport London Gatwick Airport (EGKK)

Arrival

Time 2026-05-07 12:46
Airport George Best Belfast City Airport (EGAC)
Time Latitude Longitude Altitude Speed Heading
2026-05-07 11:20 51.15650 -0.17787 209 ft 0 kts 167°
2026-05-07 11:38 51.15658 -0.17790 204 ft 4 kts 169°
2026-05-07 11:39 51.15685 -0.17795 214 ft 4 kts 181°
2026-05-07 11:39 51.15711 -0.17789 214 ft 4 kts 207°
2026-05-07 11:39 51.15726 -0.17767 214 ft 1 kts 258°
2026-05-07 11:39 51.15727 -0.17760 213 ft 0 kts 258°
2026-05-07 11:42 51.15726 -0.17761 213 ft 1 kts 257°
2026-05-07 11:42 51.15715 -0.17838 207 ft 9 kts 258°
2026-05-07 11:42 51.15703 -0.17925 209 ft 7 kts 254°
2026-05-07 11:43 51.15691 -0.17997 204 ft 6 kts 257°
2026-05-07 11:43 51.15677 -0.18100 204 ft 12 kts 258°
2026-05-07 11:43 51.15657 -0.18213 211 ft 9 kts 236°
2026-05-07 11:43 51.15620 -0.18213 206 ft 4 kts 181°
2026-05-07 11:44 51.15596 -0.18214 204 ft 3 kts 181°
2026-05-07 11:44 51.15576 -0.18214 204 ft 4 kts 180°
2026-05-07 11:44 51.15528 -0.18201 211 ft 10 kts 168°
2026-05-07 11:44 51.15447 -0.18163 211 ft 14 kts 153°
2026-05-07 11:45 51.15334 -0.18123 206 ft 19 kts 169°
2026-05-07 11:45 51.15217 -0.18101 204 ft 13 kts 208°
2026-05-07 11:45 51.15195 -0.18220 206 ft 11 kts 259°
2026-05-07 11:45 51.15182 -0.18328 208 ft 9 kts 259°
2026-05-07 11:46 51.15171 -0.18420 211 ft 8 kts 259°
2026-05-07 11:46 51.15162 -0.18497 208 ft 6 kts 259°
2026-05-07 11:46 51.15154 -0.18561 207 ft 7 kts 258°
2026-05-07 11:46 51.15137 -0.18692 203 ft 17 kts 258°
2026-05-07 11:47 51.15110 -0.18875 208 ft 17 kts 256°
2026-05-07 11:47 51.15083 -0.19059 212 ft 17 kts 258°
2026-05-07 11:47 51.15059 -0.19247 204 ft 18 kts 258°
2026-05-07 11:47 51.15033 -0.19439 206 ft 18 kts 257°
2026-05-07 11:48 51.15007 -0.19634 204 ft 19 kts 257°
2026-05-07 11:48 51.14978 -0.19840 207 ft 20 kts 256°
2026-05-07 11:48 51.14944 -0.20066 207 ft 22 kts 257°
2026-05-07 11:48 51.14910 -0.20309 207 ft 23 kts 259°
2026-05-07 11:49 51.14874 -0.20568 211 ft 25 kts 258°
2026-05-07 11:49 51.14838 -0.20841 212 ft 25 kts 258°
2026-05-07 11:49 51.14800 -0.21097 213 ft 21 kts 257°
2026-05-07 11:49 51.14762 -0.21310 204 ft 18 kts 259°
2026-05-07 11:50 51.14706 -0.21396 207 ft 11 kts 178°
2026-05-07 11:50 51.14646 -0.21342 210 ft 9 kts 143°
2026-05-07 11:50 51.14590 -0.21313 207 ft 8 kts 168°
2026-05-07 11:50 51.14526 -0.21235 211 ft 15 kts 122°
2026-05-07 11:51 51.14535 -0.21072 203 ft 16 kts 77°
2026-05-07 11:51 51.14591 -0.20665 211 ft 72 kts 78°
2026-05-07 11:51 51.14745 -0.19547 213 ft 132 kts 77°
2026-05-07 11:51 51.14985 -0.17870 306 ft 168 kts 77°
2026-05-07 11:52 51.15221 -0.16115 1093 ft 160 kts 78°
2026-05-07 11:52 51.15464 -0.14374 1644 ft 169 kts 77°
2026-05-07 11:52 51.15759 -0.12449 2010 ft 187 kts 76°
2026-05-07 11:52 51.16093 -0.10371 2441 ft 202 kts 76°
2026-05-07 11:53 51.16457 -0.08074 2806 ft 225 kts 74°
2026-05-07 11:53 51.17103 -0.05724 3352 ft 240 kts 54°
2026-05-07 11:53 51.18137 -0.03516 3881 ft 259 kts 52°
2026-05-07 11:53 51.19255 -0.01201 4659 ft 266 kts 52°
2026-05-07 11:54 51.20394 0.01157 5465 ft 270 kts 52°
2026-05-07 11:54 51.21540 0.03526 6320 ft 274 kts 52°
2026-05-07 11:54 51.22737 0.05947 7141 ft 278 kts 47°
2026-05-07 11:54 51.24266 0.07765 7922 ft 282 kts 24°
2026-05-07 11:55 51.26206 0.08446 8723 ft 286 kts 358°
2026-05-07 11:55 51.28145 0.07909 9537 ft 289 kts 346°
2026-05-07 11:55 51.30110 0.07131 10295 ft 295 kts 346°
2026-05-07 11:55 51.32181 0.06300 10535 ft 319 kts 346°
2026-05-07 11:56 51.34403 0.05410 10933 ft 337 kts 346°
2026-05-07 11:56 51.36699 0.04501 11589 ft 343 kts 346°
2026-05-07 11:56 51.39033 0.03583 12321 ft 346 kts 346°
2026-05-07 11:56 51.41390 0.02658 13019 ft 351 kts 346°
2026-05-07 11:57 51.42965 0.02041 13489 ft 354 kts 346°
2026-05-07 11:57 51.45372 0.01096 14154 ft 357 kts 346°
2026-05-07 11:57 51.47801 0.00141 14790 ft 360 kts 346°
2026-05-07 11:57 51.50242 -0.00824 15410 ft 364 kts 345°
2026-05-07 11:58 51.53522 -0.02127 16224 ft 368 kts 345°
2026-05-07 11:58 51.55210 -0.02798 16630 ft 371 kts 345°
2026-05-07 11:58 51.57726 -0.03798 17244 ft 374 kts 345°
2026-05-07 11:58 51.60271 -0.04809 17856 ft 378 kts 345°
2026-05-07 11:59 51.62801 -0.05819 18439 ft 381 kts 345°
2026-05-07 11:59 51.65386 -0.06854 18973 ft 384 kts 345°
2026-05-07 11:59 51.67993 -0.07895 19503 ft 387 kts 345°
2026-05-07 11:59 51.70619 -0.08939 20045 ft 390 kts 345°
2026-05-07 12:00 51.73268 -0.10007 20576 ft 393 kts 342°
2026-05-07 12:00 51.75823 -0.11556 21102 ft 394 kts 332°
2026-05-07 12:00 51.78217 -0.13731 21626 ft 396 kts 327°
2026-05-07 12:00 51.80597 -0.16013 22170 ft 399 kts 328°
2026-05-07 12:01 51.82997 -0.18305 22651 ft 403 kts 328°
2026-05-07 12:01 51.85423 -0.20616 23142 ft 406 kts 328°
2026-05-07 12:01 51.87867 -0.22941 23626 ft 409 kts 328°
2026-05-07 12:01 51.90332 -0.25292 24031 ft 412 kts 328°
2026-05-07 12:02 51.92814 -0.27664 24429 ft 415 kts 328°
2026-05-07 12:02 51.95303 -0.30047 24823 ft 417 kts 328°
2026-05-07 12:02 51.97813 -0.32454 25201 ft 419 kts 328°
2026-05-07 12:02 52.00296 -0.34838 25564 ft 422 kts 328°
2026-05-07 12:03 52.02826 -0.37276 25929 ft 424 kts 328°
2026-05-07 12:03 52.05367 -0.39730 26271 ft 427 kts 329°
2026-05-07 12:03 52.07931 -0.42201 26586 ft 430 kts 329°
2026-05-07 12:03 52.10516 -0.44694 26925 ft 433 kts 329°
2026-05-07 12:04 52.13120 -0.47209 27271 ft 435 kts 329°
2026-05-07 12:04 52.15722 -0.49729 27613 ft 437 kts 329°
2026-05-07 12:04 52.18340 -0.52270 27953 ft 439 kts 329°
2026-05-07 12:04 52.20974 -0.54830 28284 ft 441 kts 329°
2026-05-07 12:05 52.23614 -0.57398 28606 ft 443 kts 329°
2026-05-07 12:05 52.26267 -0.59981 28917 ft 445 kts 329°
2026-05-07 12:05 52.28934 -0.62581 29212 ft 448 kts 330°
2026-05-07 12:05 52.31616 -0.65204 29474 ft 450 kts 330°
2026-05-07 12:06 52.34315 -0.67849 29756 ft 453 kts 330°
2026-05-07 12:06 52.37023 -0.70505 30030 ft 455 kts 330°
2026-05-07 12:06 52.39746 -0.73175 30278 ft 457 kts 330°
2026-05-07 12:06 52.42473 -0.75848 30508 ft 458 kts 330°
2026-05-07 12:07 52.45214 -0.78540 30733 ft 460 kts 330°
2026-05-07 12:07 52.47962 -0.81245 30969 ft 461 kts 330°
2026-05-07 12:07 52.50682 -0.83926 31160 ft 463 kts 330°
2026-05-07 12:07 52.53477 -0.86685 31434 ft 463 kts 330°
2026-05-07 12:08 52.56199 -0.89378 31709 ft 462 kts 330°
2026-05-07 12:08 52.58957 -0.92111 32000 ft 462 kts 330°
2026-05-07 12:08 52.61704 -0.94837 32266 ft 462 kts 330°
2026-05-07 12:08 52.64453 -0.97569 32563 ft 461 kts 330°
2026-05-07 12:09 52.67190 -1.00296 32860 ft 461 kts 330°
2026-05-07 12:09 52.69940 -1.03043 33097 ft 461 kts 330°
2026-05-07 12:09 52.72683 -1.05811 33359 ft 462 kts 328°
2026-05-07 12:09 52.75246 -1.09029 33666 ft 463 kts 319°
2026-05-07 12:10 52.77594 -1.12677 33931 ft 463 kts 317°
2026-05-07 12:10 52.79934 -1.16349 34064 ft 462 kts 317°
2026-05-07 12:10 52.82249 -1.19984 34085 ft 457 kts 317°
2026-05-07 12:11 52.86844 -1.27211 34084 ft 455 kts 317°
2026-05-07 12:11 52.91428 -1.34437 34084 ft 455 kts 317°
2026-05-07 12:12 52.96005 -1.41680 34086 ft 455 kts 317°
2026-05-07 12:12 53.00545 -1.48887 34070 ft 454 kts 317°
2026-05-07 12:13 53.05108 -1.56158 34076 ft 454 kts 317°
2026-05-07 12:13 53.09664 -1.63436 34065 ft 454 kts 317°
2026-05-07 12:14 53.14222 -1.70746 34055 ft 454 kts 316°
2026-05-07 12:14 53.18770 -1.78053 34053 ft 454 kts 316°
2026-05-07 12:15 53.23379 -1.85260 34050 ft 454 kts 323°
2026-05-07 12:15 53.28719 -1.90830 34049 ft 452 kts 332°
2026-05-07 12:16 53.34188 -1.96012 34045 ft 452 kts 331°
2026-05-07 12:16 53.39625 -2.01181 34045 ft 452 kts 331°
2026-05-07 12:17 53.45096 -2.06399 34056 ft 452 kts 331°
2026-05-07 12:17 53.50568 -2.11639 34047 ft 453 kts 331°
2026-05-07 12:18 53.55982 -2.17108 34044 ft 454 kts 323°
2026-05-07 12:18 53.60371 -2.24692 34041 ft 454 kts 304°
2026-05-07 12:19 53.63154 -2.34173 34031 ft 452 kts 290°
2026-05-07 12:19 53.65411 -2.44092 34032 ft 453 kts 290°
2026-05-07 12:20 53.67681 -2.54005 34035 ft 454 kts 290°
2026-05-07 12:20 53.69935 -2.63881 34042 ft 454 kts 289°
2026-05-07 12:21 53.72181 -2.73835 34037 ft 453 kts 289°
2026-05-07 12:21 53.74408 -2.83785 34055 ft 452 kts 289°
2026-05-07 12:22 53.76628 -2.93735 34055 ft 452 kts 289°
2026-05-07 12:22 53.78841 -3.03684 34055 ft 452 kts 289°
2026-05-07 12:23 53.81050 -3.13642 34066 ft 452 kts 289°
2026-05-07 12:23 53.83253 -3.23606 34052 ft 452 kts 288°
2026-05-07 12:24 53.85450 -3.33609 33439 ft 456 kts 288°
2026-05-07 12:24 53.86558 -3.38696 32427 ft 461 kts 288°
2026-05-07 12:24 53.87660 -3.43771 31911 ft 454 kts 288°
2026-05-07 12:24 53.88743 -3.48769 31353 ft 449 kts 288°
2026-05-07 12:25 53.89816 -3.53715 30806 ft 444 kts 288°
2026-05-07 12:25 53.90879 -3.58608 30270 ft 440 kts 288°
2026-05-07 12:25 53.91933 -3.63457 29691 ft 435 kts 288°
2026-05-07 12:25 53.92969 -3.68243 29189 ft 430 kts 288°
2026-05-07 12:26 53.93987 -3.72976 28669 ft 424 kts 288°
2026-05-07 12:26 53.94988 -3.77648 28166 ft 419 kts 287°
2026-05-07 12:26 53.96025 -3.82243 27671 ft 415 kts 292°
2026-05-07 12:26 53.97386 -3.86551 27199 ft 412 kts 297°
2026-05-07 12:27 53.98788 -3.90687 26737 ft 407 kts 297°
2026-05-07 12:27 54.00190 -3.94835 26276 ft 403 kts 297°
2026-05-07 12:27 54.01577 -3.98946 25828 ft 399 kts 297°
2026-05-07 12:27 54.02950 -4.03030 25378 ft 395 kts 297°
2026-05-07 12:28 54.04306 -4.07077 24929 ft 392 kts 297°
2026-05-07 12:28 54.05654 -4.11100 24490 ft 389 kts 297°
2026-05-07 12:28 54.07114 -4.14966 24050 ft 388 kts 302°
2026-05-07 12:28 54.08667 -4.18709 23588 ft 386 kts 302°
2026-05-07 12:29 54.10213 -4.22427 23101 ft 383 kts 302°
2026-05-07 12:29 54.11743 -4.26113 22648 ft 379 kts 302°
2026-05-07 12:29 54.13259 -4.29772 22207 ft 376 kts 302°
2026-05-07 12:29 54.14759 -4.33402 21755 ft 373 kts 302°
2026-05-07 12:30 54.16243 -4.37005 21313 ft 369 kts 302°
2026-05-07 12:30 54.17714 -4.40583 20865 ft 367 kts 302°
2026-05-07 12:30 54.19177 -4.44144 20420 ft 365 kts 302°
2026-05-07 12:30 54.20611 -4.47632 19977 ft 363 kts 302°
2026-05-07 12:31 54.22058 -4.51154 19530 ft 361 kts 302°
2026-05-07 12:31 54.23501 -4.54664 19095 ft 359 kts 302°
2026-05-07 12:31 54.24936 -4.58155 18658 ft 358 kts 302°
2026-05-07 12:31 54.26358 -4.61633 18203 ft 356 kts 302°
2026-05-07 12:32 54.27771 -4.65104 17747 ft 354 kts 302°
2026-05-07 12:32 54.29170 -4.68546 17323 ft 351 kts 302°
2026-05-07 12:32 54.30559 -4.71959 16899 ft 348 kts 302°
2026-05-07 12:32 54.31935 -4.75346 16490 ft 345 kts 301°
2026-05-07 12:33 54.34649 -4.82061 15680 ft 341 kts 301°
2026-05-07 12:33 54.35995 -4.85393 15256 ft 339 kts 301°
2026-05-07 12:33 54.37336 -4.88716 14862 ft 337 kts 301°
2026-05-07 12:34 54.38664 -4.92016 14458 ft 335 kts 301°
2026-05-07 12:34 54.39982 -4.95303 14068 ft 333 kts 301°
2026-05-07 12:34 54.41296 -4.98589 13635 ft 332 kts 300°
2026-05-07 12:34 54.42585 -5.01800 13217 ft 330 kts 301°
2026-05-07 12:35 54.43883 -5.05032 12809 ft 327 kts 301°
2026-05-07 12:35 54.45170 -5.08225 12394 ft 324 kts 301°
2026-05-07 12:35 54.46453 -5.11388 11998 ft 321 kts 301°
2026-05-07 12:35 54.47728 -5.14531 11585 ft 319 kts 301°
2026-05-07 12:36 54.48991 -5.17649 11184 ft 316 kts 301°
2026-05-07 12:36 54.50258 -5.20727 10775 ft 315 kts 305°
2026-05-07 12:36 54.51798 -5.23420 10366 ft 317 kts 318°
2026-05-07 12:36 54.53526 -5.25753 10090 ft 311 kts 319°
2026-05-07 12:37 54.55197 -5.28007 9952 ft 300 kts 318°
2026-05-07 12:37 54.56816 -5.30197 9713 ft 293 kts 318°
2026-05-07 12:37 54.58429 -5.32392 9227 ft 294 kts 318°
2026-05-07 12:37 54.60020 -5.34560 8868 ft 291 kts 318°
2026-05-07 12:38 54.61600 -5.36722 8454 ft 289 kts 318°
2026-05-07 12:38 54.63170 -5.38874 8056 ft 288 kts 318°
2026-05-07 12:38 54.64721 -5.40995 7892 ft 284 kts 317°
2026-05-07 12:38 54.66272 -5.43117 7461 ft 285 kts 317°
2026-05-07 12:39 54.67823 -5.45239 7031 ft 284 kts 317°
2026-05-07 12:39 54.69372 -5.47359 6605 ft 283 kts 317°
2026-05-07 12:39 54.70893 -5.49444 6180 ft 282 kts 317°
2026-05-07 12:39 54.72428 -5.51553 5731 ft 281 kts 317°
2026-05-07 12:40 54.73956 -5.53658 5284 ft 280 kts 317°
2026-05-07 12:40 54.75473 -5.55751 4837 ft 279 kts 317°
2026-05-07 12:40 54.76973 -5.57822 4396 ft 274 kts 317°
2026-05-07 12:40 54.78287 -5.60114 4057 ft 261 kts 294°
2026-05-07 12:41 54.78647 -5.62990 3840 ft 237 kts 257°
2026-05-07 12:41 54.78181 -5.65635 3602 ft 225 kts 247°
2026-05-07 12:41 54.77507 -5.67993 3373 ft 214 kts 230°
2026-05-07 12:41 54.76431 -5.69682 3152 ft 206 kts 214°
2026-05-07 12:42 54.75262 -5.71084 2912 ft 203 kts 214°
2026-05-07 12:42 54.74122 -5.72459 2673 ft 194 kts 214°
2026-05-07 12:42 54.73051 -5.73749 2467 ft 179 kts 214°
2026-05-07 12:42 54.72080 -5.74919 2321 ft 161 kts 215°
2026-05-07 12:43 54.71195 -5.75985 2141 ft 149 kts 214°
2026-05-07 12:43 54.70385 -5.76961 1966 ft 135 kts 214°
2026-05-07 12:43 54.69634 -5.77864 1804 ft 131 kts 214°
2026-05-07 12:43 54.68902 -5.78744 1626 ft 126 kts 214°
2026-05-07 12:44 54.68427 -5.79326 1459 ft 127 kts 215°
2026-05-07 12:44 54.67709 -5.80206 1263 ft 126 kts 214°
2026-05-07 12:44 54.66716 -5.81359 1038 ft 133 kts 213°
2026-05-07 12:44 54.65981 -5.82290 895 ft 128 kts 212°
2026-05-07 12:45 54.65267 -5.83156 728 ft 125 kts 213°
2026-05-07 12:45 54.64787 -5.83690 626 ft 122 kts 212°
2026-05-07 12:45 54.64069 -5.84539 390 ft 127 kts 214°
2026-05-07 12:45 54.63340 -5.85423 252 ft 129 kts 213°
2026-05-07 12:46 54.62619 -5.86291 86 ft 126 kts 213°
2026-05-07 12:46 54.61948 -5.87084 23 ft 93 kts 213°
2026-05-07 12:46 54.61649 -5.87433 23 ft 26 kts 214°
2026-05-07 12:46 54.61505 -5.87606 21 ft 25 kts 214°
2026-05-07 12:47 54.61371 -5.87767 21 ft 21 kts 214°
2026-05-07 12:47 54.61284 -5.87737 22 ft 12 kts 126°
2026-05-07 12:47 54.61256 -5.87611 23 ft 11 kts 72°
2026-05-07 12:47 54.61316 -5.87522 23 ft 15 kts 34°
2026-05-07 12:48 54.61401 -5.87404 23 ft 15 kts 55°
2026-05-07 12:48 54.61474 -5.87289 23 ft 14 kts 34°
2026-05-07 12:48 54.61504 -5.87237 23 ft 2 kts 96°
2026-05-07 12:48 54.61495 -5.87216 23 ft 2 kts 134°
2026-05-07 12:49 54.61477 -5.87199 23 ft 4 kts 157°
2026-05-07 12:49 54.61461 -5.87188 23 ft 0 kts 156°